Time,TemperatureF,DewpointF,PressureIn,WindDirection,WindDirectionDegrees,WindSpeedMPH,WindSpeedGustMPH,Humidity,HourlyPrecipIn,Conditions,Clouds,dailyrainin,SoftwareType,DateUTC
2014-02-18 00:12:00,37.0,26.0,30.10,WSW,249,0.0,0.0,63,0.00,,,0.06,,2014-02-18 06:12:00,
2014-02-18 00:22:00,36.0,26.0,30.10,WSW,249,0.0,0.0,66,0.00,,,0.06,,2014-02-18 06:22:00,
2014-02-18 00:42:00,35.0,26.0,30.10,WSW,249,0.0,0.0,69,0.00,,,0.06,,2014-02-18 06:42:00,
2014-02-18 00:52:00,34.0,26.0,30.10,WSW,249,0.0,0.0,71,0.00,,,0.06,,2014-02-18 06:52:00,
2014-02-18 01:11:00,34.0,26.0,30.09,WSW,249,0.0,1.0,72,0.00,,,0.06,,2014-02-18 07:11:00,
2014-02-18 01:22:00,34.0,26.0,30.09,WSW,249,0.0,2.0,73,0.00,,,0.06,,2014-02-18 07:22:00,
2014-02-18 01:42:00,34.0,26.0,30.10,WSW,249,0.0,0.0,73,0.00,,,0.06,,2014-02-18 07:42:00,
2014-02-18 01:52:00,33.0,26.0,30.10,WSW,249,0.0,0.0,74,0.00,,,0.06,,2014-02-18 07:52:00,
2014-02-18 02:11:00,32.0,26.0,30.10,WSW,249,0.0,1.0,77,0.00,,,0.06,,2014-02-18 08:11:00,
2014-02-18 02:21:00,31.0,25.0,30.10,WSW,249,0.0,0.0,79,0.00,,,0.06,,2014-02-18 08:21:00,
2014-02-18 02:42:00,31.0,25.0,30.10,WSW,249,0.0,0.0,79,-99.99,,,-99.99,,2014-02-18 08:42:00,
2014-02-18 02:52:00,30.0,25.0,30.10,WSW,249,0.0,0.0,80,0.00,,,0.06,,2014-02-18 08:52:00,
2014-02-18 03:12:00,30.0,25.0,30.10,WSW,249,0.0,0.0,81,0.00,,,0.06,,2014-02-18 09:12:00,
2014-02-18 03:22:00,29.0,24.0,30.10,WSW,249,0.0,0.0,81,0.00,,,0.06,,2014-02-18 09:22:00,
2014-02-18 03:54:00,29.0,25.0,30.10,WSW,249,0.0,0.0,83,0.00,,,0.06,,2014-02-18 09:54:00,
2014-02-18 04:12:00,29.0,25.0,30.10,WSW,249,0.0,0.0,84,0.00,,,0.06,,2014-02-18 10:12:00,
2014-02-18 04:23:00,29.0,25.0,30.10,WSW,249,0.0,0.0,84,0.00,,,0.06,,2014-02-18 10:23:00,
2014-02-18 04:43:00,29.0,25.0,30.10,WSW,249,0.0,0.0,85,0.00,,,0.06,,2014-02-18 10:43:00,
2014-02-18 04:52:00,28.0,24.0,30.11,WSW,249,0.0,0.0,85,0.00,,,0.06,,2014-02-18 10:52:00,
2014-02-18 05:12:00,28.0,24.0,30.10,WSW,249,0.0,0.0,84,0.00,,,0.06,,2014-02-18 11:12:00,
2014-02-18 05:22:00,28.0,24.0,30.10,WSW,249,0.0,0.0,85,0.00,,,0.06,,2014-02-18 11:22:00,
2014-02-18 05:42:00,28.0,24.0,30.10,WSW,249,0.0,0.0,86,0.00,,,0.06,,2014-02-18 11:42:00,
2014-02-18 05:53:00,28.0,24.0,30.09,WSW,249,0.0,0.0,86,0.00,,,0.06,,2014-02-18 11:53:00,
2014-02-18 06:12:00,28.0,24.0,30.09,WSW,249,0.0,0.0,86,0.00,,,0.06,,2014-02-18 12:12:00,
2014-02-18 06:22:00,27.0,23.0,30.09,WSW,249,0.0,0.0,86,0.00,,,0.06,,2014-02-18 12:22:00,
2014-02-18 06:42:00,27.0,24.0,30.09,WSW,249,0.0,0.0,87,0.00,,,0.06,,2014-02-18 12:42:00,
2014-02-18 06:52:00,27.0,24.0,30.09,WSW,249,0.0,0.0,87,0.00,,,0.06,,2014-02-18 12:52:00,
2014-02-18 07:11:00,27.0,24.0,30.08,WSW,249,0.0,0.0,87,0.00,,,0.06,,2014-02-18 13:11:00,
2014-02-18 07:22:00,27.0,24.0,30.09,WSW,249,0.0,0.0,88,0.00,,,0.06,,2014-02-18 13:22:00,
2014-02-18 07:42:00,27.0,24.0,30.09,WSW,249,0.0,0.0,88,0.00,,,0.06,,2014-02-18 13:42:00,
2014-02-18 07:53:00,27.0,24.0,30.09,WSW,249,0.0,0.0,88,0.00,,,0.06,,2014-02-18 13:53:00,
2014-02-18 08:12:00,29.0,26.0,30.09,WSW,249,0.0,1.0,90,0.00,,,0.06,,2014-02-18 14:12:00,
2014-02-18 08:22:00,31.0,29.0,30.09,SSE,147,3.0,5.0,91,0.00,,,0.06,,2014-02-18 14:22:00,
2014-02-18 08:42:00,35.0,31.0,30.09,SSE,150,4.0,6.0,84,0.00,,,0.06,,2014-02-18 14:42:00,
2014-02-18 08:52:00,39.0,32.0,30.09,SSE,162,3.0,6.0,76,0.00,,,0.06,,2014-02-18 14:52:00,
2014-02-18 09:11:00,41.0,32.0,30.09,SSE,151,1.0,5.0,71,0.00,,,0.06,,2014-02-18 15:11:00,
2014-02-18 09:22:00,43.0,33.0,30.09,South,174,6.0,12.0,67,0.00,,,0.06,,2014-02-18 15:22:00,
2014-02-18 09:43:00,45.0,33.0,30.09,SSE,157,6.0,10.0,63,0.00,,,0.06,,2014-02-18 15:43:00,
2014-02-18 09:54:00,47.0,33.0,30.09,South,176,7.0,11.0,58,0.00,,,0.06,,2014-02-18 15:54:00,
2014-02-18 10:23:00,47.0,33.0,30.08,South,189,7.0,15.0,58,0.00,,,0.06,,2014-02-18 16:23:00,
2014-02-18 10:42:00,49.0,34.0,30.08,South,176,6.0,15.0,57,0.00,,,0.06,,2014-02-18 16:42:00,
2014-02-18 10:53:00,49.0,34.0,30.08,South,185,9.0,17.0,57,0.00,,,0.06,,2014-02-18 16:53:00,
2014-02-18 11:12:00,50.0,35.0,30.08,SW,218,8.0,15.0,57,0.00,,,0.06,,2014-02-18 17:12:00,
2014-02-18 11:21:00,52.0,36.0,30.07,South,183,9.0,14.0,54,0.00,,,0.03,,2014-02-18 17:21:00,
2014-02-18 11:42:00,52.0,36.0,30.06,South,191,9.0,17.0,55,0.00,,,0.03,,2014-02-18 17:42:00,
2014-02-18 11:52:00,52.0,34.0,30.05,South,175,15.0,21.0,51,0.00,,,0.03,,2014-02-18 17:52:00,
2014-02-18 12:12:00,52.0,36.0,30.04,South,173,7.0,15.0,54,0.00,,,0.03,,2014-02-18 18:12:00,
2014-02-18 12:23:00,53.0,37.0,30.03,South,182,10.0,15.0,55,0.00,,,0.00,,2014-02-18 18:23:00,
2014-02-18 12:42:00,53.0,38.0,30.01,South,188,8.0,18.0,56,0.00,,,0.00,,2014-02-18 18:42:00,
2014-02-18 12:52:00,53.0,38.0,29.99,South,174,8.0,17.0,56,0.00,,,0.00,,2014-02-18 18:52:00,
2014-02-18 13:12:00,54.0,38.0,29.98,South,191,9.0,16.0,54,0.00,,,0.00,,2014-02-18 19:12:00,
2014-02-18 13:22:00,55.0,38.0,29.97,SSE,161,10.0,15.0,52,0.00,,,0.00,,2014-02-18 19:22:00,
2014-02-18 13:42:00,55.0,38.0,29.96,SSW,212,8.0,15.0,52,0.00,,,0.00,,2014-02-18 19:42:00,
2014-02-18 13:52:00,56.0,38.0,29.94,SSE,163,8.0,14.0,51,0.00,,,0.00,,2014-02-18 19:52:00,
2014-02-18 14:22:00,57.0,37.0,29.92,South,186,8.0,22.0,47,0.00,,,0.00,,2014-02-18 20:22:00,
2014-02-18 14:52:00,58.0,38.0,29.91,South,180,10.0,16.0,47,0.00,,,0.00,,2014-02-18 20:52:00,
2014-02-18 15:22:00,57.0,39.0,29.89,SSW,212,8.0,18.0,51,0.00,,,0.00,,2014-02-18 21:22:00,
2014-02-18 15:43:00,57.0,40.0,29.88,SSE,168,8.0,16.0,53,0.00,,,0.00,,2014-02-18 21:43:00,
2014-02-18 15:53:00,57.0,41.0,29.87,South,190,7.0,17.0,55,0.00,,,0.00,,2014-02-18 21:53:00,
2014-02-18 16:13:00,57.0,41.0,29.87,SSE,164,7.0,16.0,55,0.00,,,0.00,,2014-02-18 22:13:00,
2014-02-18 16:23:00,57.0,41.0,29.86,South,176,8.0,16.0,56,0.00,,,0.00,,2014-02-18 22:23:00,
2014-02-18 16:42:00,57.0,42.0,29.84,SSE,168,9.0,14.0,57,0.00,,,0.00,,2014-02-18 22:42:00,
2014-02-18 16:54:00,57.0,42.0,29.83,SSW,209,7.0,17.0,58,0.00,,,0.00,,2014-02-18 22:54:00,
2014-02-18 17:12:00,57.0,42.0,29.82,South,174,8.0,17.0,58,0.00,,,0.00,,2014-02-18 23:12:00,
2014-02-18 17:22:00,57.0,43.0,29.81,South,188,7.0,11.0,59,0.00,,,0.00,,2014-02-18 23:22:00,
2014-02-18 17:42:00,57.0,43.0,29.82,South,180,5.0,14.0,60,0.00,,,0.00,,2014-02-18 23:42:00,
2014-02-18 17:53:00,56.0,43.0,29.82,South,186,4.0,8.0,62,0.00,,,0.00,,2014-02-18 23:53:00,
2014-02-18 18:11:00,56.0,44.0,29.83,South,188,0.0,5.0,63,0.00,,,0.00,,2014-02-19 00:11:00,
2014-02-18 18:22:00,55.0,43.0,29.83,South,188,0.0,1.0,64,0.00,,,0.00,,2014-02-19 00:22:00,
2014-02-18 18:32:00,55.0,43.0,29.83,South,188,0.0,1.0,64,0.00,,,0.00,,2014-02-19 00:32:00,
2014-02-18 18:42:00,55.0,43.0,29.83,South,188,0.0,1.0,64,0.00,,,0.00,,2014-02-19 00:42:00,
2014-02-18 18:52:00,54.0,43.0,29.83,South,188,1.0,2.0,66,0.00,,,0.00,,2014-02-19 00:52:00,
2014-02-18 19:22:00,53.0,43.0,29.83,South,188,0.0,0.0,68,0.00,,,0.00,,2014-02-19 01:22:00,
2014-02-18 19:42:00,52.0,43.0,29.82,South,188,1.0,2.0,70,0.00,,,0.00,,2014-02-19 01:42:00,
2014-02-18 19:52:00,52.0,43.0,29.83,South,188,0.0,1.0,71,0.00,,,0.00,,2014-02-19 01:52:00,
2014-02-18 20:11:00,51.0,42.0,29.83,South,188,0.0,0.0,72,0.00,,,0.00,,2014-02-19 02:11:00,
2014-02-18 20:22:00,51.0,43.0,29.83,South,188,0.0,1.0,73,0.00,,,0.00,,2014-02-19 02:22:00,
2014-02-18 20:42:00,51.0,43.0,29.83,South,188,0.0,0.0,73,0.00,,,0.00,,2014-02-19 02:42:00,
2014-02-18 20:53:00,50.0,42.0,29.83,South,188,0.0,3.0,75,0.00,,,0.00,,2014-02-19 02:53:00,
2014-02-18 21:22:00,51.0,45.0,29.83,South,189,1.0,4.0,79,0.00,,,0.00,,2014-02-19 03:22:00,
2014-02-18 21:43:00,51.0,45.0,29.83,South,189,1.0,3.0,79,0.00,,,0.00,,2014-02-19 03:43:00,
2014-02-18 21:53:00,52.0,45.0,29.83,South,189,0.0,3.0,78,0.00,,,0.00,,2014-02-19 03:53:00,
2014-02-18 22:13:00,51.0,44.0,29.83,South,189,0.0,0.0,77,0.00,,,0.00,,2014-02-19 04:13:00,
2014-02-18 22:23:00,51.0,44.0,29.83,South,189,0.0,2.0,78,0.00,,,0.00,,2014-02-19 04:23:00,
2014-02-18 22:42:00,50.0,44.0,29.83,South,190,0.0,3.0,80,0.00,,,0.00,,2014-02-19 04:42:00,
2014-02-18 22:53:00,51.0,46.0,29.83,WSW,241,2.0,4.0,83,0.00,,,0.00,,2014-02-19 04:53:00,
2014-02-18 23:22:00,52.0,48.0,29.81,SW,226,5.0,10.0,85,0.00,,,0.00,,2014-02-19 05:22:00,
2014-02-18 23:43:00,52.0,48.0,29.81,SSW,205,4.0,8.0,86,0.00,,,0.00,,2014-02-19 05:43:00,
2014-02-18 23:52:00,53.0,49.0,29.81,SW,222,5.0,7.0,87,0.00,,,0.00,,2014-02-19 05:52:00,